<?xml version='1.0' encoding='UTF-8'?>
<gpx xmlns="http://www.topografix.com/GPX/1/1" creator="www.balnam.be" version="1.1" xmlns:xsi="http://www.w3.org/2001/XMLSchema-instance" xsi:schemaLocation="http://www.topografix.com/GPX/1/1 http://www.topografix.com/GPX/1/1/gpx.xsd">
<trk>
<name>lhaca1</name>
<cmt>s</cmt>
<desc>Cras-Avernas Chemin n°1 </desc>
<link href="https://chemins.be/crasavernas/chemin/1"/><trkseg>
<trkpt lat="50.706006" lon="5.108955"><time>2026-05-02T19:20:27Z</time></trkpt>
<trkpt lat="50.707285" lon="5.107675"><time>2026-05-02T19:30:27Z</time></trkpt>
<trkpt lat="50.708394" lon="5.106343"><time>2026-05-02T19:40:27Z</time></trkpt>
</trkseg></trk>
<trk>
<name>lhaca1</name>
<cmt>q</cmt>
<desc>Cras-Avernas Chemin n°1 </desc>
<link href="https://chemins.be/crasavernas/chemin/1"/><trkseg>
<trkpt lat="50.708394" lon="5.106343"><time>2026-05-02T19:40:27Z</time></trkpt>
<trkpt lat="50.709524" lon="5.105236"><time>2026-05-02T19:50:27Z</time></trkpt>
</trkseg>
</trk>
<trk>
<name>lhaca11</name>
<cmt>q</cmt>
<desc>Cras-Avernas Chemin n°11 </desc>
<link href="https://chemins.be/crasavernas/chemin/11"/><trkseg>
<trkpt lat="50.689045" lon="5.139250"><time>2026-05-02T19:20:27Z</time></trkpt>
<trkpt lat="50.693482" lon="5.139456"><time>2026-05-02T19:30:27Z</time></trkpt>
<trkpt lat="50.695635" lon="5.139353"><time>2026-05-02T19:40:27Z</time></trkpt>
</trkseg>
</trk>
<trk>
<name>lhaca12</name>
<cmt>s</cmt>
<desc>Cras-Avernas Chemin n°12 Rue de Cras-Avernas</desc>
<link href="https://chemins.be/crasavernas/chemin/12"/><trkseg>
<trkpt lat="50.698650" lon="5.099926"><time>2026-05-02T19:20:27Z</time></trkpt>
<trkpt lat="50.701335" lon="5.103274"><time>2026-05-02T19:30:27Z</time></trkpt>
<trkpt lat="50.702846" lon="5.104355"><time>2026-05-02T19:40:27Z</time></trkpt>
</trkseg></trk>
<trk>
<name>lhaca12</name>
<cmt>r</cmt>
<desc>Cras-Avernas Chemin n°12 Rue de Cras-Avernas</desc>
<link href="https://chemins.be/crasavernas/chemin/12"/><trkseg>
<trkpt lat="50.702846" lon="5.104355"><time>2026-05-02T19:40:27Z</time></trkpt>
<trkpt lat="50.703691" lon="5.105518"><time>2026-05-02T19:50:27Z</time></trkpt>
<trkpt lat="50.704586" lon="5.106321"><time>2026-05-02T20:00:27Z</time></trkpt>
<trkpt lat="50.705936" lon="5.109020"><time>2026-05-02T20:10:27Z</time></trkpt>
</trkseg></trk>
<trk>
<name>lhaca12</name>
<cmt>s</cmt>
<desc>Cras-Avernas Chemin n°12 Rue de Cras-Avernas</desc>
<link href="https://chemins.be/crasavernas/chemin/12"/><trkseg>
<trkpt lat="50.705936" lon="5.109020"><time>2026-05-02T20:10:27Z</time></trkpt>
<trkpt lat="50.706842" lon="5.110561"><time>2026-05-02T20:20:27Z</time></trkpt>
<trkpt lat="50.707594" lon="5.111354"><time>2026-05-02T20:30:27Z</time></trkpt>
</trkseg></trk>
<trk>
<name>lhaca12</name>
<cmt>d</cmt>
<desc>Cras-Avernas Chemin n°12 Rue de Cras-Avernas</desc>
<link href="https://chemins.be/crasavernas/chemin/12"/><trkseg>
<trkpt lat="50.707594" lon="5.111354"><time>2026-05-02T20:30:27Z</time></trkpt>
<trkpt lat="50.708461" lon="5.112269"><time>2026-05-02T20:40:27Z</time></trkpt>
</trkseg>
</trk>
<trk>
<name>lhaca13</name>
<cmt>q</cmt>
<desc>Cras-Avernas Chemin n°13 </desc>
<link href="https://chemins.be/crasavernas/chemin/13"/><trkseg>
<trkpt lat="50.696790" lon="5.114741"><time>2026-05-02T19:20:27Z</time></trkpt>
<trkpt lat="50.697372" lon="5.111968"><time>2026-05-02T19:30:27Z</time></trkpt>
<trkpt lat="50.697573" lon="5.108003"><time>2026-05-02T19:40:27Z</time></trkpt>
</trkseg>
</trk>
<trk>
<name>lhaca14</name>
<cmt>q</cmt>
<desc>Cras-Avernas Sentier n°14 </desc>
<link href="https://chemins.be/crasavernas/sentier/14"/><trkseg>
<trkpt lat="50.698122" lon="5.120225"><time>2026-05-02T19:20:27Z</time></trkpt>
<trkpt lat="50.698579" lon="5.119281"><time>2026-05-02T19:30:27Z</time></trkpt>
<trkpt lat="50.698627" lon="5.118202"><time>2026-05-02T19:40:27Z</time></trkpt>
<trkpt lat="50.698755" lon="5.118142"><time>2026-05-02T19:50:27Z</time></trkpt>
</trkseg>
</trk>
<trk>
<name>lhaca15</name>
<cmt>q</cmt>
<desc>Cras-Avernas Sentier n°15 </desc>
<link href="https://chemins.be/crasavernas/sentier/15"/><trkseg>
<trkpt lat="50.690806" lon="5.136857"><time>2026-05-02T19:20:27Z</time></trkpt>
<trkpt lat="50.691806" lon="5.139258"><time>2026-05-02T19:30:27Z</time></trkpt>
<trkpt lat="50.692371" lon="5.140563"><time>2026-05-02T19:40:27Z</time></trkpt>
<trkpt lat="50.693129" lon="5.141915"><time>2026-05-02T19:50:27Z</time></trkpt>
<trkpt lat="50.693458" lon="5.142503"><time>2026-05-02T20:00:27Z</time></trkpt>
</trkseg>
</trk>
<trk>
<name>lhaca17</name>
<cmt>q</cmt>
<desc>Cras-Avernas Chemin n°17 </desc>
<link href="https://chemins.be/crasavernas/chemin/17"/><trkseg>
<trkpt lat="50.689011" lon="5.148768"><time>2026-05-02T19:20:27Z</time></trkpt>
<trkpt lat="50.689521" lon="5.143674"><time>2026-05-02T19:30:27Z</time></trkpt>
</trkseg>
</trk>
<trk>
<name>lhaca18</name>
<cmt>q</cmt>
<desc>Cras-Avernas Sentier n°18 </desc>
<link href="https://chemins.be/crasavernas/sentier/18"/><trkseg>
<trkpt lat="50.699363" lon="5.124169"><time>2026-05-02T19:20:27Z</time></trkpt>
<trkpt lat="50.702896" lon="5.127208"><time>2026-05-02T19:30:27Z</time></trkpt>
<trkpt lat="50.703654" lon="5.128212"><time>2026-05-02T19:40:27Z</time></trkpt>
</trkseg></trk>
<trk>
<name>lhaca18</name>
<cmt>s</cmt>
<desc>Cras-Avernas Sentier n°18 </desc>
<link href="https://chemins.be/crasavernas/sentier/18"/><trkseg>
<trkpt lat="50.703654" lon="5.128212"><time>2026-05-02T19:40:27Z</time></trkpt>
<trkpt lat="50.704321" lon="5.129096"><time>2026-05-02T19:50:27Z</time></trkpt>
</trkseg>
</trk>
<trk>
<name>lhaca19</name>
<cmt>q</cmt>
<desc>Cras-Avernas Sentier n°19 </desc>
<link href="https://chemins.be/crasavernas/sentier/19"/><trkseg>
<trkpt lat="50.698715" lon="5.124405"><time>2026-05-02T19:20:27Z</time></trkpt>
<trkpt lat="50.699008" lon="5.125341"><time>2026-05-02T19:30:27Z</time></trkpt>
<trkpt lat="50.699884" lon="5.130250"><time>2026-05-02T19:40:27Z</time></trkpt>
<trkpt lat="50.700775" lon="5.132379"><time>2026-05-02T19:50:27Z</time></trkpt>
<trkpt lat="50.700998" lon="5.134147"><time>2026-05-02T20:00:27Z</time></trkpt>
</trkseg>
</trk>
<trk>
<name>lhaca2</name>
<cmt>v</cmt>
<desc>Cras-Avernas Chemin n°2 </desc>
<link href="https://chemins.be/crasavernas/chemin/2"/><trkseg>
<trkpt lat="50.694371" lon="5.127564"><time>2026-05-02T19:20:27Z</time></trkpt>
<trkpt lat="50.693985" lon="5.129684"><time>2026-05-02T19:30:27Z</time></trkpt>
<trkpt lat="50.693311" lon="5.130765"><time>2026-05-02T19:40:27Z</time></trkpt>
<trkpt lat="50.692658" lon="5.131143"><time>2026-05-02T19:50:27Z</time></trkpt>
<trkpt lat="50.691245" lon="5.132911"><time>2026-05-02T20:00:27Z</time></trkpt>
<trkpt lat="50.690222" lon="5.133392"><time>2026-05-02T20:10:27Z</time></trkpt>
</trkseg>
</trk>
<trk>
<name>lhaca20</name>
<cmt>q</cmt>
<desc>Cras-Avernas Sentier n°20 </desc>
<link href="https://chemins.be/crasavernas/sentier/20"/><trkseg>
<trkpt lat="50.696035" lon="5.123839"><time>2026-05-02T19:20:27Z</time></trkpt>
<trkpt lat="50.696486" lon="5.127933"><time>2026-05-02T19:30:27Z</time></trkpt>
<trkpt lat="50.696524" lon="5.129572"><time>2026-05-02T19:40:27Z</time></trkpt>
</trkseg>
</trk>
<trk>
<name>lhaca21</name>
<cmt>v</cmt>
<desc>Cras-Avernas Sentier n°21 </desc>
<link href="https://chemins.be/crasavernas/sentier/21"/><trkseg>
<trkpt lat="50.697299" lon="5.122312"><time>2026-05-02T19:20:27Z</time></trkpt>
<trkpt lat="50.696507" lon="5.122483"><time>2026-05-02T19:30:27Z</time></trkpt>
<trkpt lat="50.695573" lon="5.122284"><time>2026-05-02T19:40:27Z</time></trkpt>
</trkseg>
</trk>
<trk>
<name>lhaca22</name>
<cmt>q</cmt>
<desc>Cras-Avernas Sentier n°22 </desc>
<link href="https://chemins.be/crasavernas/sentier/22"/><trkseg>
<trkpt lat="50.698010" lon="5.122785"><time>2026-05-02T19:20:27Z</time></trkpt>
<trkpt lat="50.697361" lon="5.121451"><time>2026-05-02T19:30:27Z</time></trkpt>
<trkpt lat="50.697189" lon="5.121382"><time>2026-05-02T19:40:27Z</time></trkpt>
</trkseg>
</trk>
<trk>
<name>lhaca23</name>
<cmt>q</cmt>
<desc>Cras-Avernas Sentier n°23 </desc>
<link href="https://chemins.be/crasavernas/sentier/23"/><trkseg>
<trkpt lat="50.699313" lon="5.114981"><time>2026-05-02T19:20:27Z</time></trkpt>
<trkpt lat="50.697606" lon="5.115496"><time>2026-05-02T19:30:27Z</time></trkpt>
<trkpt lat="50.696535" lon="5.116646"><time>2026-05-02T19:40:27Z</time></trkpt>
</trkseg>
</trk>
<trk>
<name>lhaca24</name>
<cmt>q</cmt>
<desc>Cras-Avernas Sentier n°24 </desc>
<link href="https://chemins.be/crasavernas/sentier/24"/><trkseg>
<trkpt lat="50.696622" lon="5.129658"><time>2026-05-02T19:20:27Z</time></trkpt>
<trkpt lat="50.697464" lon="5.129246"><time>2026-05-02T19:30:27Z</time></trkpt>
<trkpt lat="50.698084" lon="5.128002"><time>2026-05-02T19:40:27Z</time></trkpt>
<trkpt lat="50.699345" lon="5.124208"><time>2026-05-02T19:50:27Z</time></trkpt>
</trkseg>
</trk>
<trk>
<name>lhaca25</name>
<cmt>q</cmt>
<desc>Cras-Avernas Sentier n°25 Rue Fadeux</desc>
<link href="https://chemins.be/crasavernas/sentier/25"/><trkseg>
<trkpt lat="50.700270" lon="5.123942"><time>2026-05-02T19:20:27Z</time></trkpt>
<trkpt lat="50.701737" lon="5.119419"><time>2026-05-02T19:30:27Z</time></trkpt>
</trkseg></trk>
<trk>
<name>lhaca25</name>
<cmt>r</cmt>
<desc>Cras-Avernas Sentier n°25 Rue Fadeux</desc>
<link href="https://chemins.be/crasavernas/sentier/25"/><trkseg>
<trkpt lat="50.701737" lon="5.119419"><time>2026-05-02T19:30:27Z</time></trkpt>
<trkpt lat="50.701593" lon="5.118897"><time>2026-05-02T19:40:27Z</time></trkpt>
</trkseg></trk>
<trk>
<name>lhaca25</name>
<cmt>q</cmt>
<desc>Cras-Avernas Sentier n°25 Rue Fadeux</desc>
<link href="https://chemins.be/crasavernas/sentier/25"/><trkseg>
<trkpt lat="50.701593" lon="5.118897"><time>2026-05-02T19:40:27Z</time></trkpt>
<trkpt lat="50.702566" lon="5.117738"><time>2026-05-02T19:50:27Z</time></trkpt>
<trkpt lat="50.702811" lon="5.117185"><time>2026-05-02T20:00:27Z</time></trkpt>
<trkpt lat="50.702937" lon="5.116029"><time>2026-05-02T20:10:27Z</time></trkpt>
<trkpt lat="50.703237" lon="5.114940"><time>2026-05-02T20:20:27Z</time></trkpt>
</trkseg>
</trk>
<trk>
<name>lhaca26</name>
<cmt>q</cmt>
<desc>Cras-Avernas Sentier n°26 </desc>
<link href="https://chemins.be/crasavernas/sentier/26"/><trkseg>
<trkpt lat="50.698106" lon="5.131873"><time>2026-05-02T19:20:27Z</time></trkpt>
<trkpt lat="50.698035" lon="5.128148"><time>2026-05-02T19:30:27Z</time></trkpt>
</trkseg>
</trk>
<trk>
<name>lhaca29</name>
<cmt>s</cmt>
<desc>Cras-Avernas Sentier n°29 </desc>
<link href="https://chemins.be/crasavernas/sentier/29"/><trkseg>
<trkpt lat="50.693196" lon="5.141966"><time>2026-05-02T19:20:27Z</time></trkpt>
<trkpt lat="50.695002" lon="5.139409"><time>2026-05-02T19:30:27Z</time></trkpt>
</trkseg>
</trk>
<trk>
<name>lhaca30</name>
<cmt>q</cmt>
<desc>Cras-Avernas Sentier n°30 </desc>
<link href="https://chemins.be/crasavernas/sentier/30"/><trkseg>
<trkpt lat="50.697184" lon="5.121391"><time>2026-05-02T19:20:27Z</time></trkpt>
<trkpt lat="50.696657" lon="5.121180"><time>2026-05-02T19:30:27Z</time></trkpt>
</trkseg>
</trk>
<trk>
<name>lhaca31</name>
<cmt>q</cmt>
<desc>Cras-Avernas Sentier n°31 </desc>
<link href="https://chemins.be/crasavernas/sentier/31"/><trkseg>
<trkpt lat="50.700533" lon="5.111310"><time>2026-05-02T19:20:27Z</time></trkpt>
<trkpt lat="50.699359" lon="5.111786"><time>2026-05-02T19:30:27Z</time></trkpt>
</trkseg>
</trk>
<trk>
<name>lhaca4</name>
<cmt>v</cmt>
<desc>Cras-Avernas Chemin n°4 Rue du Paradis / Rue Fadeux</desc>
<link href="https://chemins.be/crasavernas/chemin/4"/><trkseg>
<trkpt lat="50.702636" lon="5.098052"><time>2026-05-02T19:20:27Z</time></trkpt>
<trkpt lat="50.702269" lon="5.100459"><time>2026-05-02T19:30:27Z</time></trkpt>
<trkpt lat="50.701851" lon="5.101452"><time>2026-05-02T19:40:27Z</time></trkpt>
</trkseg></trk>
<trk>
<name>lhaca4</name>
<cmt>q</cmt>
<desc>Cras-Avernas Chemin n°4 Rue du Paradis / Rue Fadeux</desc>
<link href="https://chemins.be/crasavernas/chemin/4"/><trkseg>
<trkpt lat="50.701851" lon="5.101452"><time>2026-05-02T19:40:27Z</time></trkpt>
<trkpt lat="50.700333" lon="5.105844"><time>2026-05-02T19:50:27Z</time></trkpt>
<trkpt lat="50.700159" lon="5.108900"><time>2026-05-02T20:00:27Z</time></trkpt>
</trkseg></trk>
<trk>
<name>lhaca4</name>
<cmt>r</cmt>
<desc>Cras-Avernas Chemin n°4 Rue du Paradis / Rue Fadeux</desc>
<link href="https://chemins.be/crasavernas/chemin/4"/><trkseg>
<trkpt lat="50.700159" lon="5.108900"><time>2026-05-02T20:00:27Z</time></trkpt>
<trkpt lat="50.701268" lon="5.117620"><time>2026-05-02T20:10:27Z</time></trkpt>
<trkpt lat="50.702311" lon="5.121122"><time>2026-05-02T20:20:27Z</time></trkpt>
<trkpt lat="50.703594" lon="5.123217"><time>2026-05-02T20:30:27Z</time></trkpt>
</trkseg></trk>
<trk>
<name>lhaca4</name>
<cmt>s</cmt>
<desc>Cras-Avernas Chemin n°4 Rue du Paradis / Rue Fadeux</desc>
<link href="https://chemins.be/crasavernas/chemin/4"/><trkseg>
<trkpt lat="50.703594" lon="5.123217"><time>2026-05-02T20:30:27Z</time></trkpt>
<trkpt lat="50.703972" lon="5.124534"><time>2026-05-02T20:40:27Z</time></trkpt>
<trkpt lat="50.704097" lon="5.126534"><time>2026-05-02T20:50:27Z</time></trkpt>
<trkpt lat="50.704461" lon="5.128637"><time>2026-05-02T21:00:27Z</time></trkpt>
</trkseg>
</trk>
<trk>
<name>lhaca7</name>
<cmt>r</cmt>
<desc>Cras-Avernas Chemin n°7 Ruelle Saint-Laurent</desc>
<link href="https://chemins.be/crasavernas/chemin/7"/><trkseg>
<trkpt lat="50.697144" lon="5.120149"><time>2026-05-02T19:20:27Z</time></trkpt>
<trkpt lat="50.697489" lon="5.119929"><time>2026-05-02T19:30:27Z</time></trkpt>
<trkpt lat="50.697585" lon="5.119897"><time>2026-05-02T19:40:27Z</time></trkpt>
</trkseg></trk>
<trk>
<name>lhaca7</name>
<cmt>v</cmt>
<desc>Cras-Avernas Chemin n°7 Ruelle Saint-Laurent</desc>
<link href="https://chemins.be/crasavernas/chemin/7"/><trkseg>
<trkpt lat="50.697585" lon="5.119897"><time>2026-05-02T19:40:27Z</time></trkpt>
<trkpt lat="50.697810" lon="5.120065"><time>2026-05-02T19:50:27Z</time></trkpt>
<trkpt lat="50.698103" lon="5.120281"><time>2026-05-02T20:00:27Z</time></trkpt>
<trkpt lat="50.698166" lon="5.120401"><time>2026-05-02T20:10:27Z</time></trkpt>
<trkpt lat="50.698487" lon="5.120987"><time>2026-05-02T20:20:27Z</time></trkpt>
<trkpt lat="50.698976" lon="5.121560"><time>2026-05-02T20:30:27Z</time></trkpt>
</trkseg>
</trk>
<trk>
<name>lhaca8</name>
<cmt>r</cmt>
<desc>Cras-Avernas Chemin n°8 Rue Raymond Pasleau / Rue de la Maladrie</desc>
<link href="https://chemins.be/crasavernas/chemin/8"/><trkseg>
<trkpt lat="50.695567" lon="5.124064"><time>2026-05-02T19:20:27Z</time></trkpt>
<trkpt lat="50.695323" lon="5.123031"><time>2026-05-02T19:30:27Z</time></trkpt>
</trkseg></trk>
<trk>
<name>lhaca8</name>
<cmt>v</cmt>
<desc>Cras-Avernas Chemin n°8 Rue Raymond Pasleau / Rue de la Maladrie</desc>
<link href="https://chemins.be/crasavernas/chemin/8"/><trkseg>
<trkpt lat="50.695323" lon="5.123031"><time>2026-05-02T19:30:27Z</time></trkpt>
<trkpt lat="50.695286" lon="5.122797"><time>2026-05-02T19:40:27Z</time></trkpt>
<trkpt lat="50.695310" lon="5.122613"><time>2026-05-02T19:50:27Z</time></trkpt>
<trkpt lat="50.695553" lon="5.122287"><time>2026-05-02T20:00:27Z</time></trkpt>
</trkseg></trk>
<trk>
<name>lhaca8</name>
<cmt>d</cmt>
<desc>Cras-Avernas Chemin n°8 Rue Raymond Pasleau / Rue de la Maladrie</desc>
<link href="https://chemins.be/crasavernas/chemin/8"/><trkseg>
<trkpt lat="50.695553" lon="5.122287"><time>2026-05-02T20:00:27Z</time></trkpt>
<trkpt lat="50.695689" lon="5.121575"><time>2026-05-02T20:10:27Z</time></trkpt>
<trkpt lat="50.695349" lon="5.119707"><time>2026-05-02T20:20:27Z</time></trkpt>
</trkseg></trk>
<trk>
<name>lhaca8</name>
<cmt>r</cmt>
<desc>Cras-Avernas Chemin n°8 Rue Raymond Pasleau / Rue de la Maladrie</desc>
<link href="https://chemins.be/crasavernas/chemin/8"/><trkseg>
<trkpt lat="50.695349" lon="5.119707"><time>2026-05-02T20:20:27Z</time></trkpt>
<trkpt lat="50.695602" lon="5.118962"><time>2026-05-02T20:30:27Z</time></trkpt>
</trkseg>
</trk>
<trk>
<name>lhaca9</name>
<cmt>q</cmt>
<desc>Cras-Avernas Sentier n°9 </desc>
<link href="https://chemins.be/crasavernas/sentier/9"/><trkseg>
<trkpt lat="50.699373" lon="5.111728"><time>2026-05-02T19:20:27Z</time></trkpt>
<trkpt lat="50.699269" lon="5.111127"><time>2026-05-02T19:30:27Z</time></trkpt>
<trkpt lat="50.698807" lon="5.110381"><time>2026-05-02T19:40:27Z</time></trkpt>
<trkpt lat="50.698177" lon="5.107514"><time>2026-05-02T19:50:27Z</time></trkpt>
<trkpt lat="50.696225" lon="5.101660"><time>2026-05-02T20:00:27Z</time></trkpt>
</trkseg>
</trk>
<trk>
<name>lhacai1</name>
<cmt>v</cmt>
<desc>Cras-Avernas Chemin n°i1 </desc>
<link href="https://chemins.be/crasavernas/chemin/i1"/><trkseg>
<trkpt lat="50.698753" lon="5.113556"><time>2026-05-02T19:20:27Z</time></trkpt>
<trkpt lat="50.698867" lon="5.111900"><time>2026-05-02T19:30:27Z</time></trkpt>
<trkpt lat="50.698068" lon="5.110252"><time>2026-05-02T19:40:27Z</time></trkpt>
<trkpt lat="50.697899" lon="5.108681"><time>2026-05-02T19:50:27Z</time></trkpt>
<trkpt lat="50.696502" lon="5.106132"><time>2026-05-02T20:00:27Z</time></trkpt>
<trkpt lat="50.696446" lon="5.105737"><time>2026-05-02T20:10:27Z</time></trkpt>
<trkpt lat="50.696223" lon="5.104176"><time>2026-05-02T20:20:27Z</time></trkpt>
<trkpt lat="50.695778" lon="5.103756"><time>2026-05-02T20:30:27Z</time></trkpt>
<trkpt lat="50.695376" lon="5.101851"><time>2026-05-02T20:40:27Z</time></trkpt>
</trkseg>
</trk>
<trk>
<name>lhacai2</name>
<cmt>v</cmt>
<desc>Cras-Avernas Chemin n°i2 </desc>
<link href="https://chemins.be/crasavernas/chemin/i2"/><trkseg>
<trkpt lat="50.702925" lon="5.104457"><time>2026-05-02T19:20:27Z</time></trkpt>
<trkpt lat="50.701792" lon="5.101431"><time>2026-05-02T19:30:27Z</time></trkpt>
</trkseg>
</trk>
<trk>
<name>lhacaLv573</name>
<cmt>s</cmt>
<desc>Cras-Avernas Chemin n°Lv573 </desc>
<link href="https://chemins.be/crasavernas/chemin/Lv573"/><trkseg>
<trkpt lat="50.693593" lon="5.127702"><time>2026-05-02T19:20:27Z</time></trkpt>
<trkpt lat="50.694748" lon="5.128920"><time>2026-05-02T19:30:27Z</time></trkpt>
<trkpt lat="50.695461" lon="5.131705"><time>2026-05-02T19:40:27Z</time></trkpt>
<trkpt lat="50.696615" lon="5.136216"><time>2026-05-02T19:50:27Z</time></trkpt>
<trkpt lat="50.698865" lon="5.139023"><time>2026-05-02T20:00:27Z</time></trkpt>
</trkseg>
</trk>
</gpx>